Volver al catálogo

FENGYUN 1C DEB

ActivoSSO
NORAD 37437·DEBRIS·🇨🇳 China

Lanzado May 10, 1999 desde Taiyuan Satellite Launch Center

Loading…

Próximos Pases (próximas 24 horas)

TLE

EnvejeciendoSource: Space-Track

Época: Sep 8, 2026, 04:57 UTC

1 37437U 99025EHF 26251.20654144  .00000696  00000-0  33063-3 0  9990
2 37437  98.6053 240.0953 0111596 351.2378  69.1542 14.19381610678138

Sigue FENGYUN 1C DEB en tiempo real con AllMySat

Download on the App Store